Find Starlink 33677

NORAD ID: 63410 Int'l Des: 2025-065 Owner: SPXS Country: US Constellation: starlink operational
LEOCIRCULAR

現在のビュー

3D地球を読み込み中...

About Starlink 33677

Starlink 33677 (NORAD 63410) is a starlink constellation satellite (v2 mini) launched Mar 31, 2025 by SPXS of US. It operates in LEO, CIRCULAR orbit with a mass of 575.00 kg.

次回通過

Passes for default location (London). Set your location on the main map for personalized predictions.

高度履歴

Loading altitude history...

軌道要素

1 63410U 25065M 26262.90680943 .00023533 00000-0 86151-3 0 9999
2 63410 43.0000 90.1758 0000643 250.2151 109.8631 15.27597289 82544
Epoch: Sep 19, 2026 • Age: 28 hours

現在のステータス

高度 493.9 km
遠地点 / 近地点 N/A
速度 7.62 km/s
衛星直下点 -38.74°S, 60.16°W
打ち上げ日 Mar 31, 2025
運用期間 1.4 years
タイプ internet

技術仕様

分類 Payload
質量 575.00 kg
乾燥質量 530.00 kg
長さ 0.30 m
スパン 29.00 m
形状 ? Box + pan
製造者 SPXS
バスタイプ Starlink V2MO
フェーズステータス In Orbit
所有者/国 SPXS/US

Most Searched